Notices

What's New in latest Release from April 7th, 2021:

- Updated Glossary, including Speed of Maximum Gust, and Total Hourly Precipitation

- Updated national and regional climate services offices contacts and prices information

- Addition of station inventory lists for 1981-2010, 1971-2000, and 1961-1990 Normals.

If you haven't already, please take our survey and provide feedback about our website: https://eccc.sondage-survey.ca/f/LanguageSelection.aspx?s=442ca660-fcf1-47c0-95a9-59707d6fd709

Hourly Data Report for November 07, 2019

CARBERRY CS
MANITOBA
Current Station Operator: ECCC - MSC

49°54'20.900" N
99°21'26.800" W
383.50 m
5010547
71170
WZE

Download Data

Hourly Data (November 2019)
Hourly Data Report for November 7, 2019
TIME
LST
Temp Definition
°C
Dew Point Definition
°C
Rel Hum Definition
%
Precip. Amount Definition
mm

Wind Dir Definition
10's deg

Wind Spd Definition
km/h
Visibility Definition
km
Stn Press Definition
kPa
Hmdx Definition


Wind Chill Definition


Weather Definition


00:00 -13.9 -17.0 77 0.0 26 14   98.65   -21 LegendNANA
01:00 -14.6 -17.4 79 0.0 25 13   98.62   -22 LegendNANA
02:00 -15.6 -18.2 81 0.0 22 9   98.58   -22 LegendNANA
03:00 -15.9 -18.3 82 0.0 23 7   98.54   -21 LegendNANA
04:00 -16.7 -18.9 83 0.0 21 7   98.49   -22 LegendNANA
05:00 -17.2 -19.4 83 0.0 20 5   98.46   -21 LegendNANA
06:00 -17.3 -19.6 82 0.0 22 6   98.43   -22 LegendNANA
07:00 -18.2 -20.4 83 0.0 17 4   98.38   -21 LegendNANA
08:00 -17.1 -19.6 81 0.0 22 4   98.39   -20 LegendNANA
09:00 -14.5 -17.6 77 0.0 13 5   98.41   -18 LegendNANA
10:00 -11.9 -16.5 69 0.0 20 2   98.41   -13 LegendNANA
11:00 -9.3 -16.0 58 0.0 18 5   98.41   -12 LegendNANA
12:00 -7.3 -15.7 51 0.0 13 5   98.34   -10 LegendNANA
13:00 -6.6 -15.0 51 0.0 16 10   98.29   -11 LegendNANA
14:00 -5.5 -14.7 49 0.0 18 11   98.27   -10 LegendNANA
15:00 -5.5 -14.7 49 0.0 18 11   98.21   -10 LegendNANA
16:00 -5.7 -14.2 51 0.0 16 11   98.17   -10 LegendNANA
17:00 -7.9 -14.1 61 0.0 17 10   98.16   -13 LegendNANA
18:00 -9.3 -14.5 66 0.0 15 7   98.16   -13 LegendNANA
19:00 -10.2 -14.8 69 0.0 14 9   LegendMM   -15 LegendNANA
20:00 -10.7 -14.7 73 0.0 15 8   98.05   -15 LegendNANA
21:00 -10.6 -14.1 76 0.0 16 4   98.01   -13 LegendNANA
22:00 -9.8 -12.9 78 0.0 16 6   97.96   -13 LegendNANA
23:00 -9.9 -12.5 81 0.0 15 11   97.87   -15 LegendNANA

Notes on Data Quality.

Legend

  • E = Estimated
  • M = Missing
  • NA = Not Available*
  • [empty] = Indicates an unobserved value
Date modified: